Location: ????????
(54.6123°N, 39.2099°E)
Time: 07:56:13
(UTC+00:00)

NOSS 2-2 (C) - Pass Details

Date: 19 May 2025
Orbit: 386 x 1711 km, 63.3° (Epoch: 23 June)

Event Time Altitude Azimuth Distance (km) Brightness Sun altitude
Rises 22:20:44 0° 309° (NW) 2,464 7.0 -14.3°
Reaches altitude 10° 22:22:36 10° 310° (NW) 1,683 6.1 -14.2°
Maximum altitude 22:26:17 87° 220° (SW) 592 3.4 -14.1°
Drops below altitude 10° 22:31:17 10° 133° (SE) 2,271 6.2 -13.9°
Sets 22:34:08 0° 133° (SE) 3,424 7.1 -13.7°
